OHFUK LRTZ-LRBS

Flight info

Callsign OHFUK
Flight time 0h 40m
Altitude 20000
Route DIRAL IDARU
Aircraft PC12/L-VGD/C

Departure

Time 2026-05-04 18:20
Airport Tuzla Airport (LRTZ)

Arrival

Time 2026-05-04 19:01
Airport Bucharest Băneasa Aurel Vlaicu International Airport (LRBS)
Time Latitude Longitude Altitude Speed Heading
2026-05-04 18:03 43.98492 28.61252 161 ft 0 kts 339°
2026-05-04 18:17 43.98496 28.61249 164 ft 5 kts 319°
2026-05-04 18:17 43.98428 28.61034 164 ft 14 kts 256°
2026-05-04 18:18 43.98430 28.60890 164 ft 17 kts 348°
2026-05-04 18:18 43.98540 28.60850 164 ft 16 kts 346°
2026-05-04 18:18 43.98646 28.60813 164 ft 15 kts 346°
2026-05-04 18:18 43.98728 28.60766 166 ft 5 kts 253°
2026-05-04 18:19 43.98717 28.60750 166 ft 0 kts 224°
2026-05-04 18:19 43.98601 28.60603 165 ft 50 kts 223°
2026-05-04 18:19 43.98225 28.60122 198 ft 92 kts 224°
2026-05-04 18:20 43.97751 28.59450 423 ft 106 kts 245°
2026-05-04 18:20 43.97946 28.58268 361 ft 160 kts 317°
2026-05-04 18:20 43.99001 28.57637 789 ft 172 kts 342°
2026-05-04 18:20 44.00123 28.56894 1234 ft 185 kts 331°
2026-05-04 18:21 44.01113 28.55690 1670 ft 195 kts 314°
2026-05-04 18:21 44.01927 28.54136 2106 ft 203 kts 308°
2026-05-04 18:21 44.02716 28.52501 2541 ft 206 kts 308°
2026-05-04 18:21 44.03542 28.50850 2973 ft 208 kts 308°
2026-05-04 18:22 44.04375 28.49212 3431 ft 207 kts 309°
2026-05-04 18:22 44.05202 28.47581 3879 ft 206 kts 309°
2026-05-04 18:22 44.06025 28.45953 4340 ft 205 kts 310°
2026-05-04 18:22 44.06838 28.44343 4801 ft 204 kts 311°
2026-05-04 18:23 44.07649 28.42737 5252 ft 203 kts 311°
2026-05-04 18:23 44.08455 28.41140 5706 ft 202 kts 312°
2026-05-04 18:23 44.09263 28.39540 6167 ft 201 kts 313°
2026-05-04 18:23 44.10077 28.37925 6627 ft 201 kts 313°
2026-05-04 18:24 44.10871 28.36351 7062 ft 201 kts 313°
2026-05-04 18:24 44.11680 28.34744 7510 ft 202 kts 313°
2026-05-04 18:24 44.12477 28.33161 7954 ft 202 kts 313°
2026-05-04 18:24 44.13288 28.31549 8414 ft 203 kts 314°
2026-05-04 18:25 44.14103 28.29927 8885 ft 203 kts 314°
2026-05-04 18:25 44.14914 28.28314 9351 ft 205 kts 314°
2026-05-04 18:25 44.15729 28.26692 9828 ft 206 kts 314°
2026-05-04 18:25 44.16287 28.25579 10131 ft 207 kts 314°
2026-05-04 18:26 44.17110 28.23940 10557 ft 208 kts 314°
2026-05-04 18:26 44.17936 28.22291 10998 ft 210 kts 314°
2026-05-04 18:26 44.18782 28.20605 11415 ft 213 kts 314°
2026-05-04 18:26 44.19641 28.18891 11846 ft 215 kts 314°
2026-05-04 18:27 44.20499 28.17178 12275 ft 217 kts 314°
2026-05-04 18:27 44.21356 28.15463 12706 ft 218 kts 314°
2026-05-04 18:27 44.22228 28.13718 13149 ft 220 kts 314°
2026-05-04 18:27 44.23110 28.11954 13605 ft 221 kts 314°
2026-05-04 18:28 44.23995 28.10183 14030 ft 222 kts 314°
2026-05-04 18:28 44.24871 28.08428 14438 ft 224 kts 314°
2026-05-04 18:28 44.25764 28.06637 14847 ft 225 kts 313°
2026-05-04 18:28 44.26667 28.04826 15261 ft 226 kts 313°
2026-05-04 18:29 44.27551 28.03050 15672 ft 226 kts 313°
2026-05-04 18:29 44.28457 28.01225 16114 ft 226 kts 313°
2026-05-04 18:29 44.29353 27.99426 16546 ft 227 kts 312°
2026-05-04 18:29 44.30256 27.97604 16973 ft 227 kts 312°
2026-05-04 18:30 44.32038 27.93975 17837 ft 229 kts 311°
2026-05-04 18:30 44.32937 27.92126 18276 ft 229 kts 311°
2026-05-04 18:30 44.33828 27.90285 18664 ft 230 kts 310°
2026-05-04 18:31 44.34724 27.88421 19053 ft 231 kts 310°
2026-05-04 18:31 44.35611 27.86563 19438 ft 231 kts 310°
2026-05-04 18:31 44.36506 27.84678 19835 ft 231 kts 309°
2026-05-04 18:31 44.37399 27.82790 20050 ft 240 kts 309°
2026-05-04 18:32 44.38357 27.80779 20055 ft 254 kts 309°
2026-05-04 18:32 44.39360 27.78685 20059 ft 264 kts 309°
2026-05-04 18:32 44.40399 27.76533 20057 ft 271 kts 309°
2026-05-04 18:32 44.41468 27.74328 20061 ft 276 kts 309°
2026-05-04 18:33 44.42558 27.72088 20061 ft 279 kts 309°
2026-05-04 18:33 44.43659 27.69833 20057 ft 282 kts 309°
2026-05-04 18:33 44.44763 27.67578 20059 ft 284 kts 309°
2026-05-04 18:33 44.45884 27.65297 20056 ft 285 kts 309°
2026-05-04 18:34 44.47023 27.62986 20057 ft 286 kts 309°
2026-05-04 18:34 44.48158 27.60689 20055 ft 287 kts 309°
2026-05-04 18:34 44.49293 27.58397 20055 ft 287 kts 309°
2026-05-04 18:34 44.50422 27.56113 20050 ft 287 kts 309°
2026-05-04 18:35 44.51423 27.53687 20043 ft 293 kts 293°
2026-05-04 18:35 44.51559 27.50818 20046 ft 304 kts 263°
2026-05-04 18:35 44.50665 27.48096 20043 ft 311 kts 233°
2026-05-04 18:35 44.49108 27.46024 20052 ft 310 kts 219°
2026-05-04 18:36 44.47406 27.44209 20052 ft 305 kts 217°
2026-05-04 18:36 44.45695 27.42461 20051 ft 302 kts 216°
2026-05-04 18:36 44.44004 27.40750 20052 ft 300 kts 216°
2026-05-04 18:36 44.42310 27.39041 20053 ft 299 kts 216°
2026-05-04 18:37 44.40638 27.37355 20049 ft 299 kts 216°
2026-05-04 18:37 44.38923 27.35629 20053 ft 303 kts 216°
2026-05-04 18:37 44.37202 27.33897 20056 ft 306 kts 216°
2026-05-04 18:37 44.35473 27.32158 20057 ft 308 kts 216°
2026-05-04 18:38 44.33739 27.30415 20056 ft 310 kts 216°
2026-05-04 18:38 44.31974 27.28649 20056 ft 311 kts 216°
2026-05-04 18:38 44.30199 27.26885 19881 ft 317 kts 216°
2026-05-04 18:38 44.28383 27.25072 19483 ft 329 kts 216°
2026-05-04 18:39 44.26509 27.23199 19075 ft 325 kts 216°
2026-05-04 18:39 44.24711 27.21381 18675 ft 316 kts 219°
2026-05-04 18:39 44.23419 27.18985 18240 ft 309 kts 250°
2026-05-04 18:39 44.23155 27.16107 17761 ft 296 kts 283°
2026-05-04 18:40 44.23925 27.13532 17303 ft 281 kts 309°
2026-05-04 18:40 44.25067 27.11379 16857 ft 277 kts 313°
2026-05-04 18:40 44.26170 27.09163 16415 ft 278 kts 308°
2026-05-04 18:40 44.27071 27.06758 15984 ft 282 kts 298°
2026-05-04 18:41 44.27634 27.04102 15557 ft 286 kts 288°
2026-05-04 18:41 44.28001 27.01403 15071 ft 285 kts 286°
2026-05-04 18:41 44.28414 26.98731 14558 ft 279 kts 290°
2026-05-04 18:41 44.28901 26.96119 14055 ft 276 kts 291°
2026-05-04 18:42 44.29386 26.93525 13520 ft 274 kts 290°
2026-05-04 18:42 44.29840 26.90945 12962 ft 273 kts 290°
2026-05-04 18:42 44.30285 26.88373 12415 ft 272 kts 290°
2026-05-04 18:42 44.30734 26.85817 11878 ft 270 kts 290°
2026-05-04 18:43 44.31180 26.83293 11352 ft 268 kts 290°
2026-05-04 18:43 44.31620 26.80784 11052 ft 259 kts 290°
2026-05-04 18:43 44.32025 26.78439 11045 ft 241 kts 290°
2026-05-04 18:43 44.32415 26.76207 10917 ft 233 kts 291°
2026-05-04 18:44 44.32819 26.73963 10265 ft 244 kts 291°
2026-05-04 18:44 44.33096 26.72407 9767 ft 249 kts 290°
2026-05-04 18:44 44.33643 26.69256 8734 ft 254 kts 290°
2026-05-04 18:44 44.34039 26.66928 8736 ft 226 kts 290°
2026-05-04 18:45 44.34386 26.64883 9041 ft 218 kts 291°
2026-05-04 18:45 44.34769 26.62773 9046 ft 233 kts 291°
2026-05-04 18:45 44.35167 26.60521 9046 ft 243 kts 290°
2026-05-04 18:45 44.35429 26.58990 9047 ft 247 kts 290°
2026-05-04 18:46 44.35741 26.57169 9046 ft 251 kts 290°
2026-05-04 18:46 44.35805 26.56798 9047 ft 252 kts 290°
2026-05-04 18:46 44.36182 26.54609 9046 ft 255 kts 290°
2026-05-04 18:47 44.36598 26.52207 9047 ft 256 kts 290°
2026-05-04 18:47 44.37019 26.49766 9046 ft 258 kts 290°
2026-05-04 18:47 44.37437 26.47335 9046 ft 259 kts 290°
2026-05-04 18:47 44.37853 26.44909 9043 ft 252 kts 290°
2026-05-04 18:48 44.38255 26.42571 9038 ft 248 kts 290°
2026-05-04 18:48 44.38660 26.40214 9036 ft 246 kts 290°
2026-05-04 18:48 44.39056 26.37908 9035 ft 244 kts 290°
2026-05-04 18:48 44.39450 26.35604 9032 ft 243 kts 290°
2026-05-04 18:49 44.39839 26.33328 9036 ft 243 kts 290°
2026-05-04 18:49 44.40232 26.31026 9034 ft 242 kts 290°
2026-05-04 18:49 44.40625 26.28718 9049 ft 242 kts 290°
2026-05-04 18:49 44.41011 26.26452 9048 ft 242 kts 290°
2026-05-04 18:50 44.41398 26.24158 9034 ft 241 kts 288°
2026-05-04 18:50 44.41465 26.21784 8782 ft 256 kts 270°
2026-05-04 18:50 44.41255 26.19217 8265 ft 266 kts 268°
2026-05-04 18:50 44.41028 26.16636 7765 ft 270 kts 268°
2026-05-04 18:51 44.40715 26.14122 7265 ft 254 kts 259°
2026-05-04 18:51 44.40245 26.11845 7049 ft 231 kts 258°
2026-05-04 18:51 44.39810 26.09811 7039 ft 204 kts 259°
2026-05-04 18:51 44.39438 26.08017 7039 ft 187 kts 260°
2026-05-04 18:52 44.39076 26.06231 7042 ft 197 kts 260°
2026-05-04 18:52 44.38685 26.04319 7049 ft 205 kts 259°
2026-05-04 18:52 44.38283 26.02383 7047 ft 212 kts 259°
2026-05-04 18:52 44.37866 26.00384 7050 ft 217 kts 259°
2026-05-04 18:53 44.37439 25.98334 7028 ft 223 kts 259°
2026-05-04 18:53 44.37002 25.96236 6861 ft 227 kts 258°
2026-05-04 18:53 44.36558 25.94084 6111 ft 233 kts 258°
2026-05-04 18:53 44.36100 25.91882 5355 ft 236 kts 256°
2026-05-04 18:54 44.35657 25.89702 4613 ft 231 kts 261°
2026-05-04 18:54 44.35879 25.87560 3853 ft 222 kts 299°
2026-05-04 18:54 44.37002 25.86169 3110 ft 220 kts 338°
2026-05-04 18:54 44.38511 25.86173 2520 ft 215 kts 19°
2026-05-04 18:55 44.39736 25.87079 2509 ft 186 kts 30°
2026-05-04 18:55 44.41599 25.88906 2501 ft 152 kts 35°
2026-05-04 18:55 44.42386 25.89796 2515 ft 138 kts 38°
2026-05-04 18:56 44.43081 25.90647 2505 ft 128 kts 38°
2026-05-04 18:56 44.43739 25.91454 2502 ft 127 kts 38°
2026-05-04 18:56 44.44406 25.92254 2507 ft 126 kts 38°
2026-05-04 18:56 44.45073 25.93037 2506 ft 126 kts 37°
2026-05-04 18:57 44.45751 25.93818 2512 ft 125 kts 37°
2026-05-04 18:57 44.46425 25.94581 2510 ft 125 kts 36°
2026-05-04 18:57 44.47110 25.95349 2506 ft 125 kts 39°
2026-05-04 18:57 44.47467 25.96431 2508 ft 125 kts 72°
2026-05-04 18:58 44.47735 25.97615 2378 ft 134 kts 70°
2026-05-04 18:58 44.47995 25.98911 1978 ft 141 kts 74°
2026-05-04 18:58 44.48226 26.00255 1520 ft 142 kts 75°
2026-05-04 18:58 44.48477 26.01523 1324 ft 126 kts 72°
2026-05-04 18:59 44.48735 26.02679 1037 ft 123 kts 73°
2026-05-04 18:59 44.48895 26.03403 939 ft 115 kts 73°
2026-05-04 18:59 44.49181 26.04713 802 ft 102 kts 74°
2026-05-04 18:59 44.49379 26.05664 777 ft 104 kts 75°
2026-05-04 19:00 44.49587 26.06689 600 ft 110 kts 76°
2026-05-04 19:00 44.49787 26.07687 472 ft 102 kts 76°
2026-05-04 19:00 44.49991 26.08643 326 ft 102 kts 75°
2026-05-04 19:00 44.50166 26.09487 299 ft 53 kts 73°
2026-05-04 19:01 44.50234 26.09800 298 ft 28 kts 74°
2026-05-04 19:01 44.50282 26.10044 298 ft 24 kts 74°
2026-05-04 19:01 44.50327 26.10269 298 ft 24 kts 75°
2026-05-04 19:01 44.50313 26.10418 296 ft 12 kts 157°
2026-05-04 19:02 44.50243 26.10449 296 ft 0 kts 172°
2026-05-04 19:04 44.50189 26.10432 296 ft 17 kts 216°
2026-05-04 19:04 44.50138 26.10256 300 ft 21 kts 255°
2026-05-04 19:04 44.50098 26.10066 297 ft 20 kts 253°
2026-05-04 19:04 44.50061 26.09885 300 ft 19 kts 255°
2026-05-04 19:05 44.50029 26.09711 299 ft 18 kts 254°
2026-05-04 19:05 44.49996 26.09548 299 ft 17 kts 246°
2026-05-04 19:05 44.49952 26.09402 300 ft 16 kts 252°
2026-05-04 19:05 44.49930 26.09260 302 ft 15 kts 255°
2026-05-04 19:06 44.49906 26.09125 302 ft 14 kts 254°
2026-05-04 19:06 44.49881 26.08996 302 ft 12 kts 255°
2026-05-04 19:06 44.49844 26.08893 303 ft 12 kts 208°
2026-05-04 19:06 44.49760 26.08873 303 ft 12 kts 189°
2026-05-04 19:07 44.49717 26.08806 303 ft 11 kts 281°
2026-05-04 19:07 44.49720 26.08719 304 ft 0 kts 259°
2026-05-04 19:07 44.49712 26.08704 305 ft 7 kts 204°
2026-05-04 19:07 44.49707 26.08759 305 ft 9 kts 38°
2026-05-04 19:08 44.49756 26.08818 303 ft 10 kts
2026-05-04 19:08 44.49774 26.08745 306 ft 9 kts 191°
2026-05-04 19:08 44.49770 26.08746 305 ft 0 kts 142°